KAVK

Details ICAO KAVK
Name ALVA RGNL
Region United States
Timezone America/Chicago (UTC-5.0)
Plans Departing 1
Arriving 2
Stats Elevation 1,474 ft / 449 m (AMSL)
Location 36.772079° -98.670421°
Runways 2
Magnetic Variation 4.403° E
Sunrise 2018-05-24 11:22:21 UTC / 2018-05-24 06:22:21 Local
Sunset 2018-05-25 01:43:37 UTC / 2018-05-24 20:43:37 Local
Advertisement - Login to hide

Runways

ID Width Length Bearing (true) Bearing (mag) Surface Threshold Offset Overrun Length
08 170 ft / 52 m 1,868 ft / 570 m 90.00° 85.60° Dirt 0 ft / 0 m 0 ft / 0 m
17 75 ft / 23 m 4,393 ft / 1,339 m 180.14° 175.74° Asphalt 0 ft / 0 m 0 ft / 0 m
26 170 ft / 52 m 1,868 ft / 570 m 270.00° 265.60° Dirt 0 ft / 0 m 0 ft / 0 m
35 75 ft / 23 m 4,393 ft / 1,339 m 0.14° 355.74° Asphalt 145 ft / 44 m 0 ft / 0 m

Map

Weather


0- 5 10 15 20 25 30 35+ Temperature / ° C

Clouds and Precipitation
Forecast for 2018-05-25 00:00 UTC. Updated 2 hours ago

Ground ~20,000 ft ~40,000 ft Winds

METAR

KAVK 250115Z AUTO 16013G19KT 10SM FEW065 26/19 A2993 RMK AO2

TAF

Not found

Frequencies

Recorded 121.12 MHz AWOS 3
Approach 119.77 MHz VANCE APP/DEP
Unicom 122.80 MHz CTAF/UNICOM
Warning: Do not use this data for real-world aviation or navigation. No guarantee of current accuracy is given.